Theta_e
349 342 332 330 328 323 316 313 314 315 316 316 317 317 319 320 319 318 315 313 312 314 317 323 329 332 332 333 333 335 336 337 338 338 338 338 338 338 337 337 338 338 337 338 337 335 334 331 328 327 327 322 313 309 309 308 308 308 308 309 310 311 311 311 311 312 313 314 315 316 316 315 314 313 313 313 313 314 314 313 312 312 312 313 313
347 337 331 331 329 323 316 313 314 315 317 316 318 319 320 319 318 315 313 312 317 321 325 332 336 337 337 338 337 338 338 338 339 339 339 338 338 337 337 336 337 337 338 337 335 334 331 328 327 327 325 317 309 308 308 307 308 308 309 309 311 311 311 311 312 312 313 314 314 314 314 313 313 312 313 312 313 313 312 312 312 312 313 314 314
344 334 332 332 329 323 315 314 314 316 317 317 320 321 321 319 316 314 314 318 323 327 331 335 337 338 338 338 338 338 338 338 339 339 339 338 338 337 338 337 337 338 338 337 335 333 330 325 325 323 318 314 309 309 307 308 308 308 309 310 311 312 312 313 313 313 313 313 314 314 313 312 312 312 312 312 312 312 312 312 313 314 314 314 314
342 333 333 332 328 323 315 313 315 317 317 319 322 323 323 320 317 316 320 325 329 332 335 337 337 338 338 338 339 339 339 339 339 339 339 339 338 338 338 337 337 338 337 337 335 334 330 324 323 321 317 316 311 308 308 308 308 309 310 310 312 313 313 315 316 316 316 318 316 314 313 312 313 312 312 312 312 312 313 314 314 314 314 314 314
338 333 333 331 328 322 315 313 315 317 319 322 324 325 325 322 321 322 326 329 333 336 337 337 338 338 338 339 339 339 339 339 339 339 339 338 338 338 338 338 337 337 337 336 336 335 332 326 322 320 319 318 312 308 309 308 309 309 310 311 314 316 317 319 321 323 325 327 325 322 320 312 311 313 312 313 313 313 313 314 314 314 314 314 314
335 334 334 331 327 322 315 313 316 318 320 324 326 327 327 326 325 326 329 333 337 337 338 338 338 338 338 339 339 339 338 338 338 338 339 338 338 338 338 338 337 337 336 335 335 334 332 327 319 317 319 318 312 309 309 309 310 310 311 314 317 318 320 324 327 330 330 332 331 332 329 315 312 314 313 314 314 314 314 314 314 314 314 314 314
335 335 335 331 327 321 315 313 317 319 321 324 327 329 329 329 328 330 333 336 338 337 338 338 338 338 338 338 338 339 338 338 338 338 338 338 338 338 338 338 337 336 336 334 334 333 331 324 315 315 318 317 313 311 309 309 310 311 314 316 319 320 324 328 330 332 332 332 332 335 333 319 313 314 313 314 313 314 314 314 314 314 314 314 314
337 337 335 332 327 322 315 313 317 319 321 325 328 331 331 331 332 334 336 337 337 337 338 338 338 338 338 338 338 338 339 338 338 338 338 338 338 338 336 335 335 335 334 333 332 331 328 320 314 316 318 316 313 312 310 309 310 312 314 317 320 323 327 330 330 332 332 332 333 335 334 321 315 314 313 314 314 314 314 314 314 313 314 314 314
342 339 335 332 328 323 316 313 317 319 321 325 328 331 333 334 335 336 337 337 337 338 338 338 338 338 338 337 338 338 339 338 337 337 336 335 333 332 330 327 328 328 328 329 329 328 323 317 316 318 317 314 313 312 311 311 311 312 314 317 320 324 328 329 330 331 332 333 333 335 333 320 313 313 313 314 314 314 314 314 314 314 314 314 313
344 341 335 333 329 324 317 313 316 319 322 325 328 331 334 335 336 337 337 338 338 338 338 338 338 337 337 337 337 337 336 336 335 333 331 329 326 324 323 320 320 318 317 319 322 322 317 316 319 319 315 313 313 312 312 311 311 311 314 318 320 324 327 328 329 329 330 331 330 333 331 318 313 313 313 313 314 314 314 314 314 315 315 315 314
344 342 336 333 331 327 320 313 314 319 323 325 327 330 334 336 337 337 337 338 338 338 338 338 338 337 337 336 335 334 333 333 331 329 327 325 322 320 318 314 312 311 310 311 315 315 314 318 320 317 314 313 313 312 312 312 311 311 313 317 321 324 326 328 329 330 329 327 329 333 326 314 313 313 313 314 314 314 314 314 314 315 315 315 315
344 342 337 333 331 328 321 315 313 317 323 325 326 331 335 337 337 337 337 338 338 338 338 338 337 337 336 335 334 333 332 331 328 326 325 322 318 314 311 309 308 308 308 310 312 312 315 320 319 314 313 313 313 312 311 311 311 311 312 316 320 324 328 330 330 330 329 328 333 334 324 316 314 313 313 313 314 314 314 314 315 315 315 316 316
344 341 336 334 332 330 324 317 313 315 322 325 326 333 336 336 337 337 337 338 338 338 337 337 337 336 335 334 333 332 330 328 325 323 321 318 313 310 308 308 308 308 308 309 309 311 317 319 317 314 314 314 313 312 311 311 311 311 312 315 319 323 328 330 329 329 329 329 334 332 324 318 313 312 313 313 314 314 314 314 315 315 316 316 316
343 339 335 334 333 331 327 320 314 314 320 324 327 333 335 336 337 337 337 337 337 337 337 336 336 336 334 333 331 329 327 324 320 318 317 314 310 308 308 308 308 308 308 308 309 313 317 317 316 316 315 314 313 312 312 311 311 311 311 314 317 322 326 328 327 329 329 328 332 331 324 317 311 313 313 313 314 314 315 315 316 316 316 316 316
342 337 335 335 333 332 329 324 317 313 316 322 327 332 334 335 336 336 337 337 337 337 336 336 335 334 332 330 328 327 324 321 317 315 314 311 309 308 308 308 308 308 308 309 310 314 316 316 316 317 316 315 313 313 313 312 312 312 311 312 315 322 327 329 328 330 331 328 329 330 328 320 311 312 313 313 314 314 315 315 316 316 316 316 317
340 335 335 335 333 333 331 328 321 314 314 320 327 331 333 335 335 336 336 336 336 336 335 334 333 331 330 327 326 324 322 319 315 313 312 310 308 309 308 308 308 308 308 309 311 314 315 315 317 317 317 315 314 313 313 313 312 312 312 312 313 320 326 330 330 332 333 330 329 328 328 324 313 311 313 313 314 314 315 315 316 317 316 316 317
340 334 335 334 333 334 332 330 325 318 314 317 325 330 332 335 335 335 335 335 334 333 333 331 329 328 327 326 324 321 320 317 313 311 310 309 309 309 309 308 308 308 308 310 312 314 314 314 316 317 316 316 315 314 314 313 313 313 312 312 313 318 323 330 332 332 331 327 330 330 327 324 314 312 313 313 314 314 315 315 315 316 317 317 317
341 335 334 334 334 334 333 332 329 324 316 314 322 328 330 333 334 334 333 333 333 332 331 329 327 327 327 325 321 319 318 315 311 310 309 309 309 308 309 309 308 309 308 309 312 314 314 315 317 317 316 316 316 315 315 314 314 314 314 314 314 317 323 330 331 331 330 328 331 332 329 324 316 314 313 313 314 314 314 315 315 316 317 317 317
341 336 335 335 335 335 334 333 331 328 320 313 317 324 328 331 332 332 332 332 332 331 330 329 327 326 324 321 318 317 317 316 313 310 311 310 310 310 309 309 309 309 309 309 311 313 315 316 318 318 318 318 318 317 317 316 316 316 316 316 315 317 324 332 333 332 333 332 332 331 329 324 318 316 315 315 315 314 315 315 316 317 318 318 318
343 340 339 338 337 336 335 335 334 331 325 317 313 318 325 329 330 330 331 331 332 331 329 328 326 322 320 319 319 318 319 322 319 314 314 314 313 313 312 311 310 309 309 309 310 311 314 316 318 319 319 320 320 319 319 319 319 319 318 319 317 317 322 328 330 330 331 333 333 331 329 323 317 317 317 316 316 315 316 316 316 317 318 318 318
345 344 343 341 339 338 338 337 336 334 331 322 313 314 321 326 328 330 331 332 332 329 327 323 320 318 316 319 321 322 323 322 319 318 320 319 316 316 315 314 313 312 311 310 309 309 311 313 315 317 318 318 318 318 319 319 321 321 320 320 319 318 320 323 328 331 332 332 332 331 331 326 317 315 316 316 316 317 317 317 317 317 318 319 318
345 345 343 342 341 340 341 340 339 339 336 328 316 311 317 323 326 330 332 332 330 327 325 319 314 315 316 321 325 331 332 324 321 323 323 320 318 318 318 319 319 317 315 315 314 313 310 310 311 312 314 314 314 316 319 321 324 325 323 320 318 321 323 325 330 332 331 331 331 332 333 331 321 315 314 315 316 317 318 319 319 318 318 318 318
345 345 343 342 342 342 341 341 341 340 338 333 320 311 315 322 325 329 331 329 327 328 328 323 319 321 323 329 332 335 335 328 327 329 326 326 326 326 327 328 328 324 321 322 322 320 317 316 314 312 312 312 318 323 325 327 329 330 328 324 322 324 327 330 332 330 330 332 332 333 332 331 327 320 316 315 316 317 319 320 320 320 319 319 319
344 344 343 342 342 342 341 341 340 339 338 331 318 311 314 321 325 329 329 326 328 332 332 331 333 333 331 333 334 334 334 331 330 332 332 332 332 332 333 333 332 331 329 329 329 325 324 325 322 320 318 319 326 331 332 332 332 331 330 328 328 328 331 334 334 331 332 333 332 333 332 332 332 327 320 317 319 319 321 321 322 323 322 322 319
343 343 342 342 342 341 341 340 338 338 335 325 315 313 315 321 327 331 328 327 332 333 334 335 335 333 332 334 334 335 336 334 333 334 334 334 334 335 334 334 333 333 333 333 333 331 330 332 330 329 328 327 330 332 332 333 332 332 332 331 330 332 334 335 333 333 334 333 331 332 333 332 332 329 323 320 320 322 324 325 325 325 325 324 322
343 342 341 340 340 339 339 338 336 336 333 328 325 324 324 329 333 333 329 332 335 333 334 333 329 330 332 334 335 335 334 334 334 334 334 333 333 335 334 334 335 335 334 333 335 334 333 334 333 334 333 331 332 332 331 331 331 332 332 332 332 333 334 333 332 333 334 333 332 331 331 330 329 329 326 322 320 322 326 327 327 327 327 327 325
342 340 339 339 338 338 337 336 336 335 333 333 333 331 334 336 334 332 333 336 335 333 334 329 326 331 332 334 336 335 333 334 335 334 334 333 334 335 334 334 335 337 336 333 336 336 334 334 334 334 334 334 333 333 332 331 331 331 330 331 332 332 333 333 333 333 333 332 332 332 331 329 328 327 325 322 321 323 327 328 328 329 328 327 326
340 338 338 337 336 336 335 335 335 334 334 333 333 333 335 336 334 334 336 334 330 334 334 327 327 330 331 334 335 336 335 334 335 333 333 334 335 335 334 336 336 336 337 335 335 336 335 335 335 335 334 333 333 334 334 334 334 333 332 332 331 330 330 331 332 332 332 331 331 331 331 331 330 329 327 325 323 324 327 329 329 330 330 329 327
338 337 336 336 335 335 334 334 334 334 334 333 333 335 334 336 336 336 336 332 332 335 330 325 328 330 332 334 335 336 335 335 335 333 331 333 334 334 334 336 334 333 334 334 333 335 335 335 335 335 335 334 334 333 334 334 334 334 334 334 334 333 332 332 333 333 333 333 332 332 332 332 332 332 331 331 328 327 327 328 329 330 331 330 329
336 335 335 335 335 334 334 334 335 335 334 333 334 335 335 335 336 336 335 334 335 332 325 327 332 333 335 335 335 334 334 335 335 335 335 335 334 334 334 336 335 334 334 334 334 333 333 334 335 336 336 336 335 335 334 334 335 334 334 334 334 334 333 334 335 335 334 334 333 333 333 333 333 332 332 333 333 332 331 329 329 329 331 331 330
334 334 335 335 334 334 334 334 334 334 334 335 335 335 336 336 336 334 332 332 333 330 329 333 335 336 336 335 335 334 335 336 335 336 336 336 335 335 335 335 336 335 335 335 334 333 332 334 336 335 335 334 333 334 334 334 333 334 334 334 333 333 333 333 334 334 334 334 333 333 333 333 332 332 331 332 333 334 333 332 331 330 330 330 330
334 335 336 335 335 335 335 335 335 334 335 337 335 335 335 336 337 334 333 333 334 334 334 336 336 336 336 335 335 335 335 335 335 336 335 335 336 335 335 334 334 334 333 333 333 333 333 334 335 333 332 332 332 331 331 331 331 333 334 334 334 335 335 334 333 333 334 334 333 333 333 332 332 332 331 331 332 333 334 333 333 332 330 330 330
335 336 336 335 336 336 335 335 335 334 336 336 334 335 335 335 335 335 336 336 336 336 336 336 337 336 335 336 335 334 335 335 335 335 335 335 335 334 334 334 334 332 332 332 332 334 334 335 335 334 334 334 334 333 333 333 333 334 334 334 335 335 334 333 332 333 334 335 334 332 332 332 333 332 332 331 332 333 333 333 333 333 331 330 330
337 337 335 335 337 336 335 334 334 336 337 335 334 336 336 335 335 335 336 336 337 337 336 337 337 336 336 336 335 335 335 335 334 334 334 334 335 335 334 335 335 332 333 333 333 334 334 335 335 334 334 335 335 334 334 334 334 334 334 334 334 333 333 333 332 333 334 335 335 333 333 333 333 333 332 332 333 333 333 333 333 333 333 331 330
338 337 334 334 336 335 334 334 334 336 336 336 336 336 337 336 336 335 334 336 338 337 337 337 337 336 337 336 334 333 333 332 331 333 333 333 335 336 335 335 334 333 334 334 333 334 334 334 334 333 333 333 334 334 333 333 334 334 334 333 333 332 333 333 333 334 334 335 335 335 335 334 333 333 333 332 332 332 332 332 332 332 332 333 332
337 336 335 335 335 335 334 334 334 335 335 335 335 335 336 336 336 336 334 335 337 337 337 338 337 337 337 336 332 331 332 330 330 332 332 333 335 336 336 335 334 334 333 332 332 333 334 333 333 332 332 333 333 333 333 334 335 334 334 333 333 334 334 333 333 333 333 334 334 334 334 335 335 334 333 332 333 333 332 332 332 332 331 332 333
336 336 336 336 336 336 335 335 335 335 335 335 335 335 336 335 335 336 335 334 336 337 337 337 337 337 337 335 331 331 332 331 331 332 332 334 335 336 336 335 335 335 333 333 333 333 334 333 333 333 332 333 332 333 334 334 335 334 333 333 333 334 333 332 332 332 331 331 332 333 333 334 335 334 334 334 334 333 332 333 332 332 332 332 332
336 336 336 336 336 337 336 336 336 335 335 335 334 333 335 335 335 336 336 335 335 336 336 337 337 337 336 335 333 332 332 332 333 333 333 335 336 336 336 335 335 335 335 335 334 334 334 334 334 333 332 332 333 333 334 334 334 333 332 331 332 332 331 331 331 332 331 330 331 332 332 333 333 333 334 334 334 334 333 332 331 331 331 331 331
336 336 336 336 337 337 336 335 335 335 335 335 334 333 334 335 335 336 335 333 333 335 337 337 337 337 336 335 335 334 334 335 334 334 334 334 335 336 336 335 335 335 335 335 335 335 335 334 334 333 332 333 334 334 334 334 333 332 332 332 331 330 330 330 332 332 331 329 329 329 329 331 333 335 334 334 333 333 333 332 330 328 328 328 329
335 336 336 336 337 336 335 334 334 335 335 335 334 333 334 334 334 333 332 333 334 336 337 337 336 336 337 336 336 336 335 335 335 334 334 334 335 336 336 335 335 335 335 335 335 335 335 334 333 333 333 334 335 335 335 334 333 332 332 332 329 328 330 331 332 332 331 330 329 328 327 329 333 335 334 333 331 331 331 330 329 327 325 327 329
335 336 337 336 336 335 334 333 332 333 333 333 333 332 332 334 333 332 332 334 335 336 336 337 336 335 336 335 335 335 335 334 334 334 334 334 335 335 335 335 335 335 335 335 335 334 334 333 333 333 333 333 334 334 334 333 332 332 332 329 327 329 331 331 331 331 332 331 330 329 329 330 332 334 333 333 332 332 331 331 331 330 328 329 330
335 336 336 336 336 335 334 332 332 333 333 333 333 332 331 333 333 333 334 335 336 336 335 334 334 334 334 334 334 334 334 333 333 333 334 334 334 334 334 334 334 334 334 334 334 334 333 332 332 332 332 332 333 333 333 333 332 332 330 328 327 328 328 330 331 332 333 331 329 329 330 331 332 333 334 334 333 332 332 332 332 332 332 331 332
336 336 335 335 335 334 333 332 332 333 333 333 333 332 332 332 332 333 334 335 335 334 332 331 332 332 332 332 332 331 331 332 331 331 331 332 332 332 331 332 332 332 333 332 332 332 332 331 331 331 331 330 330 331 332 332 331 331 330 330 330 328 327 330 331 331 330 329 328 330 330 331 332 332 332 332 331 330 331 332 332 332 332 332 332
336 335 334 335 335 334 333 332 333 333 334 334 333 333 333 332 331 333 333 332 332 331 330 330 329 329 330 330 330 330 330 330 330 329 329 329 329 329 328 328 328 329 330 330 329 329 329 328 328 327 326 326 325 326 327 329 329 330 330 330 330 329 330 331 330 328 327 328 329 330 330 330 330 330 331 331 330 329 330 332 332 332 332 332 332
336 335 335 334 334 335 333 333 333 333 334 334 334 333 333 332 333 334 333 332 332 331 330 330 330 329 330 330 329 329 328 328 328 328 328 328 328 327 325 324 324 323 324 325 324 324 324 324 323 321 321 321 320 320 321 324 327 328 329 329 329 329 330 329 329 327 326 327 328 328 329 330 329 329 329 329 329 330 330 331 331 331 331 331 332
336 335 334 334 334 335 334 333 333 333 333 334 335 334 334 334 334 335 335 334 333 331 331 330 330 329 329 328 327 327 328 328 327 327 327 326 326 324 322 322 322 320 320 321 320 319 318 318 318 317 317 317 317 317 317 320 324 327 327 328 327 327 327 327 327 328 326 325 326 327 328 329 329 329 328 329 329 329 330 330 330 330 330 330 330
336 335 335 334 334 335 334 334 334 334 333 334 335 334 334 334 334 335 335 334 333 332 331 330 329 328 327 326 326 327 328 327 327 326 325 324 322 320 319 319 319 318 318 319 316 313 313 314 314 315 315 315 315 315 314 315 318 322 324 326 326 326 325 325 325 326 326 325 325 326 327 328 328 329 328 328 328 328 329 328 329 329 329 330 330
335 335 334 334 334 334 334 334 334 334 333 333 334 333 333 332 333 333 333 333 331 330 329 329 329 328 327 326 327 327 327 326 325 324 322 319 318 316 314 314 314 315 316 315 311 310 313 314 313 312 312 312 312 312 313 314 314 316 318 320 322 322 322 322 323 323 324 324 324 324 326 326 327 327 327 327 327 327 328 328 328 329 329 329 329
334 334 334 333 332 332 332 332 332 332 332 331 331 330 329 330 330 330 329 328 327 327 326 326 326 326 326 326 326 326 325 324 321 319 317 316 315 314 312 311 311 312 312 311 309 310 313 313 310 309 309 309 310 311 312 313 313 314 314 314 316 316 316 318 319 320 321 321 321 321 322 323 323 324 324 324 325 325 326 327 327 326 327 327 327
333 333 332 332 331 331 331 330 330 330 329 328 328 328 327 328 328 328 327 325 324 324 323 323 324 324 325 325 325 324 322 320 317 315 315 314 313 312 310 310 309 308 308 307 307 307 309 308 306 306 306 306 308 310 310 311 312 313 313 313 314 314 314 315 317 317 317 318 318 318 318 319 320 320 318 319 320 321 321 322 323 325 325 326 326
332 331 331 331 331 331 331 330 329 328 327 327 326 326 326 326 326 325 325 324 323 322 322 323 324 323 324 323 322 321 319 316 314 313 312 311 309 308 308 307 306 305 304 303 303 302 302 302 302 303 303 303 304 304 305 306 307 308 309 310 311 312 314 315 315 315 315 315 315 315 315 316 316 316 314 313 312 313 314 315 318 323 324 324 325
Wind_Speed
12 13 15 12 10 8 8 9 8 8 9 9 10 11 13 15 16 16 16 16 16 17 18 19 18 17 16 15 13 12 11 11 11 11 11 11 11 11 12 12 12 12 12 12 12 12 12 13 13 12 11 11 10 10 10 10 11 13 14 16 16 16 16 16 16 16 16 16 17 16 16 16 15 15 14 12 11 12 13 13 12 11 11 12 12
14 16 16 13 11 9 8 9 9 9 10 10 11 13 14 15 16 16 17 17 18 19 19 18 17 16 15 14 13 12 11 10 10 11 11 11 11 11 11 11 12 11 11 11 11 12 12 13 13 12 11 11 11 10 10 11 12 14 16 17 17 17 18 18 17 17 17 16 16 16 15 15 15 14 13 12 12 12 12 12 12 12 12 13 13
16 18 16 14 12 10 9 10 10 10 11 12 13 14 15 16 17 17 18 19 19 19 18 17 16 15 14 13 12 11 11 10 10 10 11 11 11 11 11 11 11 11 11 11 11 12 13 14 13 12 12 11 11 11 10 12 14 15 17 17 17 18 18 19 19 18 18 17 15 14 13 13 13 12 12 12 12 11 11 11 11 12 12 12 13
17 20 16 15 13 11 10 11 11 11 12 13 14 15 16 17 18 19 20 20 19 18 17 16 15 14 13 13 12 11 10 10 10 10 10 10 10 10 11 11 11 11 11 11 11 12 12 13 13 12 12 12 12 12 12 13 15 16 16 17 18 19 20 20 20 20 19 17 15 14 12 11 11 11 12 11 11 10 10 11 11 11 11 12 12
19 20 17 16 14 12 11 12 13 13 13 14 15 16 16 17 19 20 20 19 18 17 16 16 14 14 13 12 11 10 9 9 9 9 10 10 10 10 10 11 10 10 10 10 10 11 12 12 11 11 12 12 13 12 13 14 15 16 15 17 20 21 22 22 23 21 21 19 15 14 12 10 10 10 11 11 11 10 10 11 11 10 11 12 12
20 20 17 16 14 13 12 13 14 14 14 14 15 16 17 17 19 19 19 18 17 16 15 15 14 13 12 11 10 10 9 9 9 9 9 10 10 10 10 10 10 9 9 9 9 9 10 11 10 9 10 12 12 13 13 14 14 15 16 19 21 22 23 23 23 22 21 18 15 12 9 9 10 9 10 9 9 9 10 10 11 11 11 12 12
21 20 18 17 15 14 12 13 15 15 15 15 15 16 17 17 19 19 18 17 16 16 15 14 13 12 12 11 9 9 8 8 9 9 9 9 10 10 10 9 9 8 8 8 8 8 8 9 8 8 9 11 12 13 13 14 14 16 17 19 20 21 22 23 22 21 19 17 14 9 7 8 9 8 9 8 9 9 10 10 11 11 11 12 12
20 18 19 17 15 15 13 14 15 15 15 15 16 16 17 17 18 18 17 16 16 15 14 13 12 12 11 10 9 8 8 8 8 9 9 9 9 9 8 7 6 5 5 5 6 6 7 8 7 7 9 11 12 13 14 15 15 16 17 18 18 20 22 23 22 20 18 16 13 6 5 7 8 7 8 7 8 8 9 10 10 10 10 11 12
18 16 19 18 16 15 14 14 15 16 15 14 15 16 17 18 18 17 16 16 15 14 13 13 12 11 10 9 8 8 8 7 7 7 7 6 6 5 4 4 3 3 2 3 4 5 6 6 6 8 9 11 12 13 14 15 15 16 17 18 19 21 22 21 20 17 16 12 7 6 2 6 8 7 7 6 8 8 9 10 10 10 9 10 10
17 15 18 18 17 15 14 15 15 16 15 14 14 16 17 18 17 17 16 15 14 14 13 12 11 10 9 8 8 7 6 6 5 5 5 4 4 4 4 4 3 3 2 2 4 5 5 5 7 9 10 11 12 13 14 15 15 16 18 19 19 20 20 20 18 16 14 7 4 5 1 5 7 6 6 6 8 9 9 10 10 10 9 9 9
15 13 17 19 18 16 15 15 15 16 15 14 14 16 17 17 17 16 15 15 14 13 13 11 11 10 9 7 6 6 5 5 4 4 4 5 5 5 4 4 3 3 2 3 4 5 6 6 8 10 10 11 12 13 14 14 14 15 16 17 18 19 19 19 18 17 12 6 6 2 1 4 6 5 5 6 8 8 8 8 9 9 9 9 9
14 13 18 20 18 17 16 15 15 16 15 15 15 17 18 17 16 16 15 14 14 13 12 11 10 9 7 6 5 4 4 4 3 4 4 4 4 4 4 4 4 3 3 4 5 7 8 8 8 11 11 11 12 12 13 13 13 13 14 14 17 18 19 18 17 16 8 4 6 1 1 5 5 5 4 5 6 7 7 7 8 8 8 9 9
14 13 20 21 20 17 16 16 16 16 17 16 17 19 19 17 16 16 15 14 13 12 11 10 9 7 6 5 3 3 3 3 3 4 4 4 5 5 5 5 4 4 5 5 7 9 10 9 10 11 11 11 11 11 11 11 12 12 13 13 15 15 17 16 15 14 5 3 4 5 3 6 5 3 3 4 5 6 6 6 8 8 8 9 9
14 14 21 22 20 18 16 16 15 16 17 17 18 19 19 17 16 15 14 13 12 11 10 9 8 6 5 4 2 2 2 3 3 4 4 5 6 6 6 5 5 6 7 7 8 10 10 10 11 11 11 11 10 10 10 10 10 10 11 12 13 13 14 14 14 12 4 3 3 6 4 5 5 3 3 4 4 5 5 6 8 9 9 9 9
13 15 21 21 20 19 16 15 15 16 16 17 18 19 18 17 16 15 14 13 11 10 9 8 7 5 4 3 2 2 2 3 4 4 5 6 6 7 7 6 6 7 7 8 9 10 11 11 10 10 9 10 10 9 9 8 8 8 9 9 9 9 11 13 13 11 3 3 1 7 5 6 5 3 3 4 4 4 5 7 8 9 9 9 9
12 16 21 20 19 18 17 15 14 15 16 17 18 18 18 17 16 15 14 12 11 10 8 7 6 4 3 2 2 2 2 3 4 5 6 6 7 7 7 7 7 7 8 8 10 11 10 10 10 9 8 9 8 8 8 7 7 6 6 6 6 6 9 12 11 10 2 2 2 8 6 7 6 4 4 4 5 4 5 7 8 8 9 9 9
11 18 22 18 18 17 16 16 15 15 16 17 18 18 17 17 16 15 14 12 11 9 8 6 5 4 3 3 2 2 2 3 5 6 6 7 7 7 7 7 7 7 8 8 10 11 10 9 9 8 7 7 7 7 6 6 5 5 5 4 6 7 9 10 9 8 2 1 2 9 8 8 7 5 5 6 7 6 7 7 8 8 8 8 8
12 18 20 16 16 15 15 15 14 14 15 16 18 17 17 17 16 15 13 12 11 9 7 5 4 4 3 2 2 3 4 5 6 6 7 8 7 7 8 8 8 7 8 9 9 10 10 9 8 7 6 5 5 5 4 4 4 4 4 3 5 6 8 9 7 6 2 3 4 11 10 9 8 7 7 8 9 9 8 8 8 9 8 8 8
14 17 17 16 15 14 13 13 12 12 14 16 18 18 18 17 16 15 13 11 10 8 6 5 4 3 3 3 4 5 5 6 7 7 7 8 8 8 8 8 8 8 8 8 8 8 8 8 8 6 5 4 3 3 2 2 2 3 2 1 3 5 8 9 7 6 4 5 6 12 12 10 9 8 9 10 10 10 10 10 9 9 8 7 8
15 15 16 15 15 14 14 13 12 11 12 14 16 19 19 18 16 14 12 10 9 7 6 5 4 3 4 6 7 8 8 8 7 8 8 8 8 8 9 8 8 8 8 8 8 7 7 7 6 5 4 3 2 1 1 1 1 2 1 0 1 2 4 4 5 6 3 8 11 13 11 10 10 9 10 10 11 11 10 10 10 9 8 7 7
16 16 15 15 15 14 14 13 13 12 12 13 15 19 20 18 16 14 12 10 8 7 6 4 4 4 5 7 7 9 10 9 7 6 8 7 7 9 8 8 8 8 8 8 7 7 6 5 5 4 3 2 1 2 2 1 2 4 4 3 3 3 3 4 3 5 2 9 14 15 12 11 12 11 11 11 11 11 11 11 10 9 8 8 8
18 17 16 16 15 14 14 14 13 12 12 13 15 18 19 18 16 14 12 10 8 7 6 6 7 7 8 8 9 10 7 6 6 5 7 7 7 8 8 8 8 8 8 8 8 7 6 5 3 3 2 0 1 2 3 1 5 8 7 6 4 3 5 4 2 4 3 8 14 15 15 14 14 13 12 12 12 11 12 11 11 11 10 9 9
18 17 17 16 15 15 15 15 14 12 11 12 14 17 19 18 15 14 11 10 9 8 7 7 7 7 8 9 10 9 4 3 6 4 5 6 6 7 7 7 7 7 7 6 7 7 6 6 4 3 3 2 3 3 1 4 10 11 10 9 5 4 6 5 4 3 1 7 15 16 18 18 17 15 14 13 13 12 12 12 12 12 12 11 11
17 17 18 17 15 15 15 15 14 11 8 10 14 17 19 18 15 13 12 11 10 8 7 7 6 4 4 7 8 7 4 2 4 2 2 3 4 5 6 6 6 6 6 5 5 6 7 6 5 6 5 3 5 6 6 9 14 13 11 11 8 7 6 6 9 7 5 10 15 16 18 18 19 19 15 13 13 12 12 12 13 13 13 12 11
18 15 17 17 15 14 15 14 12 10 7 10 14 15 17 16 14 12 12 11 8 7 8 8 9 9 6 6 7 5 4 3 2 1 0 1 3 4 5 5 5 6 6 5 5 5 6 6 6 7 7 4 5 7 5 9 13 13 13 13 12 11 8 8 8 7 9 13 14 15 16 18 20 20 17 15 16 15 13 14 14 13 13 13 11
18 14 15 16 14 14 14 12 12 9 7 10 11 11 14 12 12 12 10 8 6 6 7 9 11 10 8 7 6 5 4 3 2 1 0 1 1 2 3 4 5 6 6 6 5 7 6 5 7 8 8 7 7 5 5 9 11 11 10 10 11 12 12 11 8 8 11 13 15 16 17 20 20 20 19 19 20 17 14 15 16 16 16 15 12
16 15 14 14 13 13 12 13 13 11 10 12 11 11 13 12 14 13 11 10 10 8 7 10 10 8 7 7 6 5 4 3 2 2 2 1 1 1 1 3 3 4 5 5 4 5 4 3 5 6 6 6 7 7 8 9 11 11 10 9 11 12 11 10 9 10 11 11 14 16 18 20 20 20 20 21 21 18 16 16 17 18 18 18 14
15 15 13 12 13 13 13 13 14 13 12 13 13 12 12 14 12 10 11 12 12 10 10 10 9 7 6 6 6 5 4 3 2 2 2 1 1 2 1 1 1 2 3 2 2 3 2 3 2 4 5 3 4 7 9 10 12 11 10 10 10 11 10 11 12 13 12 12 14 17 20 20 20 20 20 19 19 18 18 18 19 20 19 20 17
14 13 11 11 13 13 12 11 12 12 12 12 13 10 11 11 11 10 11 10 9 10 11 9 8 7 6 5 5 5 4 3 3 3 2 1 1 1 1 0 2 2 1 1 2 3 3 3 1 3 5 4 6 7 7 9 11 10 10 12 12 12 11 12 14 13 13 14 15 17 18 19 20 20 19 18 19 19 19 20 21 20 20 21 19
12 11 10 11 12 11 10 10 10 10 11 11 10 8 8 8 11 11 13 11 10 11 9 8 7 6 5 4 4 5 4 3 3 3 2 2 1 1 1 0 2 2 1 1 2 3 3 2 2 3 5 6 7 6 7 9 10 10 10 11 12 12 13 14 14 13 13 14 16 18 19 20 21 20 19 19 19 20 21 21 21 21 21 21 20
12 11 11 11 11 10 9 8 7 9 10 9 9 10 8 9 10 11 13 12 11 10 7 7 5 4 4 4 3 3 3 3 4 3 2 2 1 1 1 0 1 1 1 1 2 2 2 2 3 4 5 7 8 8 9 10 10 11 10 10 11 12 14 15 15 14 15 16 18 20 20 21 20 19 20 19 19 19 20 20 20 20 21 22 21
11 11 11 11 12 11 10 9 8 9 9 8 11 11 9 9 9 10 10 9 9 8 6 5 4 3 3 3 3 3 2 3 4 3 3 2 1 1 1 1 1 1 1 2 2 2 2 2 3 5 5 6 7 8 9 10 10 10 9 9 10 13 16 16 15 15 15 15 18 19 19 20 20 20 20 20 21 19 19 20 19 20 20 20 22
12 13 13 13 13 12 11 9 9 10 9 9 10 9 8 8 7 8 7 8 9 7 6 6 5 4 3 3 3 3 3 3 3 3 3 3 2 2 2 2 2 3 2 2 3 2 2 2 4 5 5 6 6 7 8 10 11 11 11 9 10 14 16 16 16 15 15 16 18 18 19 20 20 21 20 20 22 21 21 20 19 19 19 19 20
15 15 15 15 14 12 10 8 9 10 8 7 8 8 8 7 6 6 6 7 8 6 6 6 5 5 4 3 3 3 3 3 2 3 2 3 3 3 3 3 3 4 4 4 4 4 4 4 5 5 6 7 7 7 8 10 11 11 12 12 12 14 15 16 16 15 14 16 18 18 18 19 20 21 20 20 22 21 21 21 21 19 18 18 19
16 14 13 14 13 12 11 8 8 10 7 7 7 7 7 7 6 7 7 6 7 6 6 5 4 5 4 3 3 3 3 2 2 3 1 2 3 2 3 3 4 4 4 4 4 4 4 5 6 6 7 8 8 9 9 10 11 11 13 13 13 14 14 15 16 15 14 15 17 17 18 19 20 21 22 22 22 21 20 20 21 20 20 19 19
13 11 12 14 13 12 11 9 8 9 9 7 7 7 7 6 5 6 7 6 6 6 6 6 5 5 4 3 3 3 3 2 2 1 2 3 2 2 4 5 5 5 5 5 4 4 6 6 7 8 9 9 10 10 10 10 12 12 13 14 13 14 14 14 14 14 14 14 15 15 16 17 18 19 20 21 21 21 20 19 19 20 20 20 19
11 11 13 13 12 11 11 10 9 9 10 9 8 7 7 5 4 5 5 5 5 6 7 6 6 5 3 3 3 2 2 1 1 1 2 3 3 3 4 5 5 6 5 5 5 5 7 8 9 9 10 10 10 10 10 10 12 13 13 13 13 14 14 15 14 13 13 14 14 14 14 14 16 16 17 18 20 21 21 19 19 19 20 20 20
12 13 13 12 10 10 10 10 9 9 10 10 8 7 5 4 4 5 5 4 3 5 7 6 6 4 3 3 3 2 2 2 1 2 1 2 3 3 3 4 4 5 6 5 5 5 6 8 8 8 9 10 10 10 11 11 12 13 14 14 13 13 13 14 13 12 12 12 13 14 14 14 15 15 15 16 18 19 20 20 20 20 20 21 21
14 13 13 13 13 11 11 12 11 10 11 10 9 7 6 5 5 6 6 4 3 6 8 7 6 6 4 4 4 3 2 1 1 1 0 0 1 2 2 2 2 3 5 5 4 4 5 6 6 7 7 8 9 11 12 12 13 14 15 14 13 13 13 13 13 12 11 12 12 12 13 14 15 15 16 16 17 18 19 21 23 22 21 21 21
15 14 15 14 15 14 14 14 12 11 11 11 10 8 7 6 7 6 6 6 6 7 8 7 7 8 6 5 5 4 3 2 2 2 2 3 2 2 3 3 3 3 4 4 4 4 5 6 6 7 7 6 7 9 11 13 14 14 14 14 15 15 14 13 13 13 13 13 12 12 13 14 14 16 18 17 18 18 19 21 23 23 22 21 20
17 16 17 16 16 16 15 14 12 11 11 10 9 8 7 6 6 5 5 7 6 5 7 7 8 8 8 7 6 5 4 4 5 5 5 5 4 4 5 5 4 5 5 5 5 5 6 7 6 6 7 7 6 7 10 12 12 14 15 16 16 14 13 13 15 15 15 14 14 16 17 16 16 17 18 18 18 19 21 22 23 23 22 22 21
20 18 17 17 17 17 15 14 12 10 10 9 8 7 7 6 6 5 5 7 7 5 6 6 7 8 8 7 7 6 6 6 6 6 6 6 6 6 7 7 7 7 7 7 7 7 8 9 8 8 7 8 7 7 9 11 11 14 17 18 17 16 13 11 11 11 14 15 16 18 18 17 17 17 18 19 19 19 20 21 23 23 24 24 24
21 19 18 18 18 17 16 15 12 11 9 9 8 6 7 6 5 5 5 6 6 4 3 5 7 8 8 7 6 6 7 7 7 7 7 7 8 8 9 10 10 9 9 9 10 10 10 11 11 11 11 11 10 10 10 9 12 14 15 16 18 19 15 9 8 10 14 16 16 17 17 17 19 19 19 20 20 21 20 19 20 22 24 25 25
21 21 20 20 18 17 17 14 12 11 10 9 8 7 7 6 5 5 4 4 5 3 2 4 4 5 6 6 5 6 6 6 7 8 8 8 8 8 9 10 11 11 11 10 10 11 10 11 12 13 14 14 14 14 11 7 8 12 14 16 17 15 13 13 16 17 14 11 11 13 16 18 19 19 20 21 23 23 21 18 18 20 23 25 26
22 22 22 20 19 18 17 15 13 12 11 10 9 7 7 7 6 6 3 2 4 3 2 3 4 4 3 4 5 6 6 6 7 8 8 8 8 8 7 8 9 7 7 7 8 9 9 10 12 11 12 13 14 13 11 7 5 5 9 12 12 10 13 19 23 20 14 12 14 15 14 16 18 18 19 21 22 22 21 20 20 20 22 24 26
22 22 22 21 20 19 17 16 14 13 12 11 9 7 6 6 5 4 4 4 5 4 4 5 6 6 5 6 8 7 7 7 8 9 10 10 10 8 5 6 6 2 2 3 6 7 7 8 9 8 7 9 10 10 9 7 5 5 5 4 5 9 15 19 19 20 19 18 19 18 15 14 16 17 18 18 18 19 20 22 23 23 23 25 26
23 21 21 20 19 17 16 14 13 14 14 12 10 8 7 6 4 4 6 6 6 6 6 7 8 8 8 8 8 7 7 9 10 12 12 9 6 5 1 2 1 3 4 3 4 4 5 6 6 6 6 6 7 7 8 8 4 7 10 10 10 11 13 13 15 19 22 21 20 19 16 13 13 15 15 16 17 19 20 21 24 25 26 26 25
23 21 20 19 17 16 15 13 13 13 13 12 11 9 8 9 8 6 7 7 7 6 7 8 9 10 9 8 8 8 9 11 12 11 7 2 3 3 3 3 3 4 3 2 3 4 5 5 6 6 6 5 6 7 8 9 8 7 8 10 11 12 12 11 11 15 19 22 23 22 20 18 17 15 15 17 16 17 18 19 20 22 24 25 26
23 21 20 18 17 16 14 13 13 12 12 13 12 11 10 10 10 7 7 7 5 4 5 6 7 8 7 7 7 8 10 12 9 3 2 3 5 5 5 5 5 4 5 4 4 4 4 5 6 7 7 7 7 7 7 8 9 10 10 10 10 11 11 10 11 13 15 19 21 23 25 24 23 21 20 21 20 19 18 19 19 20 22 26 27
22 20 19 18 17 16 13 12 13 13 13 13 11 11 11 11 11 8 5 4 3 3 2 2 4 6 6 6 6 8 9 8 3 4 5 5 6 7 7 7 6 5 6 5 4 4 5 6 7 8 9 9 8 7 8 9 9 9 10 11 11 13 14 14 15 16 16 17 20 23 25 25 25 27 27 26 27 27 25 23 20 18 22 25 25
21 20 20 18 16 15 14 13 14 12 11 11 9 8 10 11 11 9 5 3 2 2 3 3 3 4 5 6 6 6 4 2 3 5 7 8 9 8 8 8 7 6 6 6 5 5 7 7 7 8 9 9 9 9 9 10 10 10 11 11 11 12 12 14 16 17 17 18 21 23 24 24 26 29 30 30 30 29 28 26 20 16 21 23 22
Wind_Direction
175 178 171 156 151 135 136 122 111 103 99 105 107 112 113 114 113 112 109 108 108 107 106 103 101 101 101 102 101 99 96 92 88 88 87 86 85 83 81 81 83 83 84 81 72 64 56 49 44 42 41 40 38 40 53 75 90 93 97 104 109 111 109 106 102 101 100 101 102 102 100 97 95 92 88 83 77 74 71 69 64 56 52 49 44
164 165 165 150 145 136 134 124 114 109 109 110 111 111 111 114 112 111 111 111 110 109 107 103 102 101 101 101 100 98 95 93 90 89 88 88 87 85 84 84 85 87 87 79 66 60 54 48 45 46 48 46 46 50 62 82 94 99 101 104 105 109 109 107 104 101 98 96 94 93 94 94 93 89 84 79 72 68 64 60 58 55 54 51 46
164 161 159 146 141 136 136 126 117 114 116 114 114 113 112 113 112 113 113 113 111 109 106 104 103 101 102 101 100 98 95 93 92 89 90 90 88 87 84 84 85 86 85 75 63 55 51 51 49 52 55 52 53 58 72 90 100 103 104 104 103 107 109 105 101 99 96 92 92 90 88 87 85 83 79 75 71 66 64 62 59 58 55 51 48
167 161 155 145 138 136 138 127 120 119 119 117 117 115 115 114 115 116 115 114 110 108 107 105 104 102 103 102 101 98 96 94 93 90 90 90 87 86 85 85 86 85 81 71 61 52 48 50 54 60 58 52 55 63 81 96 103 104 105 107 107 108 104 99 94 92 87 82 85 83 75 76 75 75 76 73 72 67 63 62 57 55 52 47 44
164 157 150 144 138 136 138 128 123 122 123 121 120 118 118 118 117 117 116 113 109 110 108 106 105 104 105 103 102 98 97 96 94 91 89 88 86 85 86 86 85 85 79 70 62 52 46 45 51 59 55 52 56 68 86 100 105 106 107 110 108 105 99 94 88 83 77 70 70 66 53 65 75 73 77 75 74 71 66 60 51 46 43 42 38
157 153 148 145 139 137 137 129 125 125 127 124 122 120 119 119 118 116 115 113 111 111 109 109 108 107 106 104 103 101 99 97 95 92 90 88 87 86 84 84 83 81 74 69 63 54 47 40 39 49 54 56 62 73 91 102 105 105 108 112 108 104 100 94 87 80 74 68 61 51 28 52 76 73 74 73 69 64 61 56 46 39 32 33 33
154 151 147 146 141 138 137 129 127 128 128 126 125 122 122 120 119 118 117 116 114 113 111 111 111 110 108 107 105 103 100 95 94 92 90 88 89 88 83 82 83 79 71 65 62 54 44 29 30 50 59 61 67 79 94 102 103 102 106 111 108 105 99 91 86 80 76 72 65 49 353 36 68 69 67 63 61 56 52 51 43 36 26 24 26
149 149 147 147 143 139 137 131 128 129 129 129 127 125 124 123 122 120 120 119 117 117 115 114 113 112 110 110 107 104 101 95 93 91 88 87 88 87 79 76 79 74 63 56 51 43 31 24 38 67 69 67 73 84 96 102 103 101 105 109 108 103 95 90 84 79 76 72 74 69 337 27 62 61 63 60 59 56 51 50 45 37 27 20 19
143 152 150 146 143 140 137 132 130 131 132 131 130 129 127 126 125 124 123 122 121 120 118 118 116 115 114 111 110 107 103 96 89 86 83 79 77 72 58 49 49 38 32 35 38 29 27 41 66 81 78 74 78 86 96 102 103 103 106 109 110 104 96 91 84 81 78 73 98 124 41 37 59 57 55 53 53 49 46 46 43 37 29 21 17
146 158 153 148 144 139 137 133 131 134 134 134 133 132 132 131 129 127 127 126 125 124 122 121 119 120 117 114 113 106 98 89 79 72 64 52 42 33 26 25 20 13 13 33 50 48 49 75 92 90 85 82 83 89 97 101 103 105 108 112 111 105 97 90 81 72 68 70 121 131 116 34 45 51 46 41 45 43 40 37 33 30 25 23 17
151 160 156 149 142 138 136 133 132 135 135 135 135 136 136 134 132 131 130 130 129 127 126 126 126 124 119 115 108 98 85 71 55 40 31 25 22 18 23 26 26 27 34 63 84 83 84 96 101 98 92 88 89 93 98 101 104 106 109 112 108 102 95 87 81 73 62 59 68 56 233 55 41 46 44 35 40 39 36 33 27 22 19 17 14
156 166 162 150 140 138 135 133 133 134 137 136 136 138 138 136 135 135 134 134 134 132 131 132 131 127 119 113 100 86 67 48 23 14 11 16 28 35 42 43 47 54 64 85 100 104 108 113 109 105 99 93 93 96 98 100 103 107 108 110 107 103 96 89 85 84 74 53 65 309 288 42 28 42 37 26 35 34 29 25 21 16 14 11 9
163 166 163 151 138 138 134 134 134 135 138 137 137 139 139 139 138 139 139 137 137 136 135 136 134 131 122 113 100 78 47 26 11 14 18 28 42 51 55 57 65 72 83 96 107 114 121 121 115 108 103 99 97 98 99 99 101 105 107 110 110 107 101 95 87 84 75 59 80 261 303 11 357 30 17 18 24 23 21 13 11 9 8 6 5
169 161 161 150 139 138 136 136 135 137 140 139 139 140 141 140 141 142 143 142 141 141 140 141 139 135 126 118 101 68 32 22 23 33 40 47 51 55 59 66 78 84 90 100 112 121 127 125 117 109 105 103 102 100 99 99 101 103 106 110 110 106 101 95 86 80 53 77 98 273 311 4 356 16 353 2 1 9 7 1 5 2 3 359 360
170 167 163 149 142 139 138 138 136 139 140 141 141 142 143 143 145 146 148 147 146 148 146 146 143 137 129 118 101 58 29 24 33 48 57 61 57 59 65 74 83 87 91 101 116 126 129 127 117 110 108 107 107 105 102 100 101 103 106 111 110 106 100 95 91 86 32 32 25 278 296 336 346 8 341 337 334 354 351 353 1 357 357 353 354
174 170 164 152 147 144 141 138 135 139 141 143 144 145 147 147 150 151 152 153 153 155 153 152 147 141 132 112 98 69 43 38 44 59 71 73 63 60 67 78 85 85 89 102 120 130 131 129 120 113 111 110 112 110 109 106 104 104 105 110 109 113 108 100 96 97 87 14 347 278 280 312 329 346 326 317 318 332 333 342 350 351 351 345 348
168 162 163 158 152 148 144 140 139 143 143 147 149 149 151 152 153 154 156 157 161 160 157 153 143 138 127 108 95 87 74 64 65 73 77 77 71 65 67 74 82 82 86 103 124 134 136 134 125 120 117 114 118 115 115 113 109 104 101 104 107 117 113 108 106 106 147 238 256 273 284 305 319 327 316 310 308 316 324 332 337 342 343 338 340
151 155 160 156 152 151 146 144 145 145 147 150 153 153 155 157 158 159 160 161 162 159 156 149 142 140 122 115 107 98 86 76 75 78 78 75 70 68 68 66 74 77 80 98 124 138 143 140 133 130 126 121 121 121 122 115 112 102 96 100 111 117 110 108 100 91 329 294 233 267 286 300 318 325 316 313 311 317 321 324 327 332 334 330 332
143 147 149 150 151 151 147 148 148 149 150 153 157 159 159 161 162 162 162 163 161 157 154 145 139 135 125 117 101 98 86 74 71 72 71 70 68 64 64 60 63 68 72 87 111 133 143 142 140 138 131 130 131 134 133 117 103 93 98 101 120 128 116 114 98 84 310 290 256 273 286 300 324 329 325 322 317 320 320 320 321 324 325 322 328
145 142 142 146 149 150 150 151 151 152 154 158 162 162 163 164 166 165 164 163 159 155 149 145 141 130 125 111 101 103 82 61 62 66 59 56 63 61 57 55 53 58 63 72 90 112 127 134 136 138 135 138 154 182 179 116 39 26 1 332 235 181 144 149 114 94 320 290 280 288 293 307 328 330 329 326 320 323 320 321 320 320 319 318 323
150 148 148 146 146 150 150 152 155 159 161 164 167 166 167 167 167 165 163 161 155 146 135 128 131 123 118 111 103 97 70 49 57 67 56 46 52 59 54 51 48 46 51 57 67 81 96 113 124 131 130 144 202 242 221 111 20 350 332 316 301 273 257 262 137 121 282 285 285 294 294 305 324 327 326 323 322 323 320 320 319 319 317 315 315
153 154 151 149 150 151 152 155 155 160 164 167 173 170 168 168 165 162 161 157 146 136 128 124 118 112 108 99 88 85 67 40 56 64 57 50 46 54 51 51 51 43 45 46 49 54 58 69 80 97 92 10 321 279 205 104 6 341 329 312 304 297 281 283 164 172 227 280 282 288 289 297 312 319 321 321 323 322 321 321 319 319 316 313 310
155 153 149 151 152 153 157 157 155 161 166 169 174 170 166 167 162 157 154 147 146 150 141 123 103 97 96 88 87 97 116 65 72 70 50 47 42 45 41 42 47 43 48 43 37 38 37 37 35 37 40 40 32 9 281 340 341 330 328 321 304 292 294 302 294 270 327 294 285 286 289 295 304 312 318 319 322 322 321 321 321 320 315 313 309
153 150 148 151 152 156 154 154 156 156 162 161 166 168 165 165 158 151 154 152 158 164 133 111 110 124 117 99 101 116 137 108 93 101 43 33 35 40 33 28 32 38 44 46 39 33 29 17 10 16 25 59 66 39 3 325 318 320 325 326 319 316 326 316 305 319 328 291 286 291 293 295 299 306 313 317 322 321 319 318 317 316 313 312 308
148 145 146 149 154 155 146 149 151 151 162 149 155 163 159 159 155 156 167 158 160 167 137 142 166 171 160 122 120 135 144 153 160 159 54 19 27 43 39 21 22 32 26 28 33 27 25 12 8 14 15 28 43 32 355 297 299 314 323 329 326 317 309 287 287 301 288 275 275 283 288 289 292 299 305 312 316 312 312 313 310 310 309 309 304
147 145 145 151 156 152 148 151 147 153 152 137 151 153 142 150 163 173 169 144 158 182 160 170 176 166 154 136 146 170 172 175 177 167 192 11 21 40 40 19 18 27 16 10 15 18 20 2 355 1 6 8 4 350 288 269 276 288 296 308 307 299 299 294 290 284 278 281 285 284 282 284 290 297 300 304 307 304 304 309 309 310 310 311 305
145 145 146 151 149 152 157 154 154 156 138 143 163 149 142 169 184 174 156 160 182 185 169 173 170 160 155 151 169 186 173 172 179 185 203 219 198 183 46 21 13 25 21 11 359 4 3 328 328 332 336 347 344 312 284 284 283 281 275 266 264 268 283 290 285 276 273 284 295 292 288 291 296 297 296 298 300 298 303 308 309 311 313 315 312
147 143 144 147 144 155 160 155 158 154 150 165 164 152 168 187 182 152 156 181 179 171 178 177 170 167 172 172 183 188 166 164 160 151 173 203 200 172 112 11 344 68 55 25 326 314 261 241 267 292 293 294 282 272 284 298 298 300 300 298 287 276 277 279 280 279 275 280 286 286 288 292 294 297 300 300 298 298 301 304 306 308 309 311 312
148 146 145 144 148 158 154 152 153 152 168 165 144 164 206 189 158 149 172 179 163 178 190 177 171 177 188 189 180 179 171 158 135 132 144 119 60 67 94 328 12 61 82 15 319 288 250 236 248 278 277 256 243 244 257 280 292 295 293 301 300 293 290 278 281 286 284 285 283 279 281 284 285 293 302 303 302 301 299 299 301 302 301 301 304
143 146 143 146 152 150 143 150 154 163 165 139 136 188 215 175 157 172 177 165 171 192 181 169 180 181 188 191 173 172 175 159 138 146 159 119 69 36 68 36 29 26 311 352 322 302 299 295 301 285 276 270 269 263 247 251 272 279 272 278 279 283 287 276 275 282 282 282 285 286 283 280 282 289 296 299 301 303 301 299 297 296 295 294 296
145 140 135 145 145 135 140 152 154 157 142 135 176 190 184 171 169 181 177 169 181 185 168 177 186 171 173 173 163 163 165 149 129 128 131 122 120 87 65 54 39 347 297 315 301 306 313 302 285 278 271 273 280 274 257 251 264 273 271 279 286 284 285 281 275 277 284 286 289 292 287 284 287 291 293 295 296 297 298 299 298 297 293 289 290
149 137 134 141 136 136 149 155 158 161 158 174 188 181 181 181 174 178 179 177 178 171 169 177 159 149 152 141 136 134 130 120 116 121 130 122 105 98 62 30 34 355 335 330 328 335 329 317 288 285 285 284 289 284 277 281 287 290 285 290 299 293 287 286 281 282 290 291 289 288 285 289 296 296 295 294 293 291 292 296 298 299 295 286 284
144 141 146 147 144 150 156 157 169 174 177 179 176 180 185 186 186 184 182 178 172 166 160 156 146 136 123 113 111 111 108 107 114 121 125 109 89 79 58 44 29 7 0 2 359 356 353 336 307 309 314 304 306 308 305 303 303 302 297 292 287 286 285 283 285 290 294 296 293 289 289 296 299 297 294 292 293 293 292 293 294 296 295 287 281
150 151 153 151 150 157 158 160 175 175 176 169 169 179 173 177 192 186 186 177 166 161 150 147 144 127 116 111 110 113 106 98 103 108 109 99 84 52 31 30 14 0 355 2 357 349 349 326 309 315 313 306 307 306 303 299 295 294 293 289 280 281 284 284 289 291 289 293 296 295 295 297 297 294 293 293 293 294 295 291 290 292 291 288 283
159 156 153 155 155 157 159 165 171 166 168 168 167 172 165 170 178 169 176 175 164 158 141 135 135 119 110 109 108 113 109 95 87 93 83 69 72 23 351 343 345 345 339 347 348 338 326 306 304 312 310 309 307 303 305 304 300 296 291 292 292 291 290 290 294 294 289 286 287 290 291 291 291 291 292 293 293 295 297 294 292 293 290 287 283
163 156 156 157 155 153 154 163 172 165 164 160 157 162 163 168 176 168 167 173 172 153 134 128 119 106 103 106 104 108 113 111 97 71 19 33 44 343 333 335 337 336 333 334 331 323 316 313 318 317 315 317 314 310 313 313 308 303 297 295 297 298 297 297 298 297 294 289 285 285 286 287 288 289 290 292 295 297 300 298 295 295 292 288 284
161 160 160 158 160 160 156 159 170 167 156 149 152 158 154 153 167 171 160 168 171 141 127 120 109 107 108 97 93 98 104 113 104 36 6 6 7 346 338 349 350 337 332 330 324 322 319 325 330 325 322 323 323 319 315 311 308 308 308 304 299 298 302 305 303 300 301 301 298 295 293 291 291 291 290 290 295 298 301 300 297 296 293 289 289
162 166 162 159 162 164 156 154 162 160 150 147 153 154 146 138 145 159 153 161 174 133 121 113 106 108 101 87 84 80 75 69 57 49 15 2 5 350 343 355 351 329 322 328 326 324 321 325 329 329 328 326 326 324 319 315 312 312 315 315 310 305 305 306 306 305 307 310 306 301 300 298 296 297 295 291 292 296 299 300 299 298 296 293 292
163 165 162 158 156 153 147 147 151 153 150 146 147 149 150 150 149 158 158 171 180 130 120 119 117 111 100 96 99 102 94 80 71 100 193 52 1 322 323 318 310 309 314 319 316 316 320 321 325 328 331 331 331 330 326 322 319 318 318 320 320 315 316 317 313 311 313 313 307 304 305 305 303 301 298 295 293 293 294 295 297 296 295 295 295
158 157 157 156 150 146 143 143 144 146 147 144 148 154 159 164 157 149 157 173 164 133 130 140 141 134 130 126 125 136 147 163 174 177 201 201 216 258 273 264 268 280 286 289 293 308 314 316 320 321 324 329 335 334 327 322 321 321 318 318 321 323 329 331 323 317 317 319 315 313 312 308 300 294 293 295 298 302 300 298 299 298 296 295 295
155 153 153 152 146 144 144 143 141 143 146 146 154 155 154 158 144 135 157 161 148 148 163 164 161 158 155 156 158 166 180 196 202 199 207 215 221 237 252 255 257 267 276 281 286 296 298 300 305 308 315 317 325 331 320 317 323 326 319 317 323 330 335 332 321 312 311 317 319 316 315 311 303 297 299 302 306 310 310 307 305 303 301 298 295
155 153 150 150 149 147 144 142 142 145 150 154 161 156 149 145 130 134 159 155 153 180 189 169 174 185 181 176 181 195 207 215 221 222 224 229 239 250 258 263 261 265 276 282 283 285 285 287 288 289 296 300 306 314 312 321 331 328 321 322 325 325 328 328 313 302 304 311 318 318 316 311 304 301 301 301 302 303 302 300 300 300 300 300 297
153 151 149 150 151 149 145 145 146 150 156 158 159 155 151 146 142 163 188 191 186 191 178 161 182 201 198 192 200 228 235 239 254 262 258 251 255 263 267 269 266 266 270 276 281 283 283 285 286 284 284 283 282 282 291 322 336 328 323 325 325 322 327 327 288 287 306 314 320 322 316 309 307 307 304 299 298 301 299 293 294 296 296 298 297
151 149 148 148 148 148 148 149 151 152 152 149 153 157 154 146 158 188 205 211 188 177 175 177 202 211 203 205 226 264 269 268 275 280 278 269 264 268 274 274 271 267 269 275 281 284 287 288 287 286 285 284 280 276 280 295 325 334 331 327 326 323 328 320 299 298 311 314 309 311 310 306 306 308 307 304 305 308 306 299 296 296 296 297 296
147 147 148 148 149 150 151 153 153 150 143 137 140 152 157 152 161 181 188 171 164 181 222 220 239 239 233 253 276 294 300 296 287 286 286 283 277 276 276 275 275 276 276 283 289 289 289 285 285 286 284 286 287 287 287 273 275 326 335 335 339 332 323 320 314 308 306 299 298 300 301 304 307 308 306 306 308 310 308 303 299 295 293 293 294
144 145 145 147 150 151 150 153 152 149 146 139 135 139 143 137 144 174 181 182 183 189 214 237 257 262 267 287 299 304 306 302 292 289 288 285 286 287 282 274 280 340 20 322 306 303 301 295 296 300 295 293 295 296 295 278 246 243 261 295 324 320 321 326 327 317 303 297 300 303 304 308 310 307 305 303 303 305 303 302 301 298 295 294 294
146 147 145 145 149 150 151 158 158 155 155 151 146 144 136 126 128 170 183 200 212 207 225 251 265 271 277 290 297 293 290 290 286 286 287 289 300 310 315 261 241 78 54 354 329 341 349 337 328 329 327 318 314 314 313 311 282 241 242 249 257 275 299 316 329 328 319 308 299 298 302 305 298 297 304 304 303 306 306 305 305 305 305 302 300
149 150 148 147 151 151 153 163 168 168 165 160 163 169 167 167 172 190 203 216 231 230 234 245 253 264 275 283 280 275 277 281 282 285 290 327 50 48 69 101 123 100 71 48 19 22 20 360 346 345 346 337 328 329 327 327 326 307 285 271 269 277 289 301 317 327 330 323 310 301 296 291 288 295 307 304 302 306 305 303 305 306 306 304 303
152 150 147 145 145 146 149 156 166 176 172 167 171 172 168 169 174 195 220 220 219 225 230 237 245 253 264 266 267 277 285 288 289 299 43 72 92 93 91 95 99 91 84 81 57 37 25 12 6 359 359 356 344 337 330 328 337 337 329 321 318 317 318 326 327 322 328 330 322 314 307 302 296 291 292 295 293 291 287 290 298 305 311 310 307
151 146 141 143 144 147 151 156 168 174 169 167 169 165 161 162 168 178 203 213 197 197 191 204 239 246 256 260 267 281 290 303 322 102 91 82 103 108 103 96 90 82 80 78 61 38 28 23 15 7 6 3 355 349 340 338 344 341 339 344 345 343 343 345 341 334 330 327 322 318 317 318 312 297 291 293 291 286 286 290 293 307 321 319 312
149 144 143 150 154 158 164 167 171 171 166 165 160 158 164 167 168 166 167 182 184 181 160 167 228 236 248 262 267 274 283 359 52 94 102 97 99 102 99 95 90 81 75 72 57 44 44 35 21 17 16 11 5 2 359 356 355 351 352 357 356 359 0 349 338 335 332 327 323 320 319 321 316 306 300 300 298 297 299 301 298 304 313 317 322